This demonstration page uses our WeatherBlox Daily Observations layout. Learn more.

Left ArrowRight Arrow

40.92501, -98.34201

Hourly Observations for August 7, 2020

Temp ( °F °C ) Dew Point ( °F °C ) Humidity (%) Winds ( mph kmh ) Pressure ( in mb ) Visibility ( mi km ) Precip ( " mm )
12:53 am 00:53 Clear with Mist and Fog 73 22.8 70 21.1 90 90 S 10 17 29.91 1013 5 8 0.00 0.00
1:53 am 01:53 Clear with Mist and Fog 73 22.8 69 20.6 87 87 S 9 15 29.92 1013 4 6 0.00 0.00
2:53 am 02:53 Clear with Mist and Fog 72 22.2 69 20.6 91 91 S 9 15 29.90 1013 4 6 0.00 0.00
3:53 am 03:53 Clear with Mist and Fog 71 21.7 68 20 90 90 SSE 9 15 29.88 1012 3 5 0.00 0.00
4:05 am 04:05 Mostly Clear with Mist and Fog 71 21.7 68 20 90 90 SSE 8 13 29.86 1011 3 5 0.00 0.00
4:22 am 04:22 Mostly Cloudy with Mist and Fog 71 21.7 68 20 90 90 S 8 13 29.86 1011 3 5 0.00 0.00
4:34 am 04:34 Mostly Cloudy with Mist and Fog 70 21.1 68 20 93 93 SSE 9 15 29.85 1011 3 5 0.00 0.00
4:49 am 04:49 Mostly Clear with Mist and Fog 70 21 68 20 94 94 S 8 13 29.85 1011 3 5 0.00 0.00
4:53 am 04:53 Partly Cloudy with Mist and Fog 70 21.1 67 19.4 90 90 S 7 11 29.88 1012 3 5 0.00 0.00
5:06 am 05:06 Mostly Cloudy with Mist and Fog 71 21.7 68 20 90 90 SSE 8 13 29.85 1011 3 5 0.00 0.00
5:13 am 05:13 Mostly Cloudy with Mist and Fog 71 21.7 68 20 90 90 SSE 8 13 29.85 1011 3 5 0.00 0.00
5:22 am 05:22 Cloudy with Mist and Fog 71 21.7 68 20 90 90 SSE 9 15 29.85 1011 3 5 0.00 0.00
5:32 am 05:32 Cloudy with Mist and Fog 71 21.7 68 20 90 90 SSE 8 13 29.85 1011 3 5 0.00 0.00
5:53 am 05:53 Cloudy with Mist and Fog 71 21.7 68 20 90 90 SE 9 15 29.87 1012 4 6 0.00 0.00
6:15 am 06:15 Cloudy with Mist and Fog 71 21.7 68 20 90 90 SE 8 13 29.84 1010 3 5 0.00 0.00
6:53 am 06:53 Cloudy with Mist and Fog 72 22.2 68 20 87 87 SSE 13 20 29.87 1012 3 4 0.00 0.00
7:39 am 07:39 Cloudy with Mist and Fog 72 22.2 69 20.6 91 91 SSE 10 17 29.85 1011 2 3 0.00 0.00
7:53 am 07:53 Cloudy with Mist and Fog 72 22.2 69 20.6 91 91 SSE 10 17 29.88 1012 2 3 0.00 0.00
8:24 am 08:24 Cloudy with Mist and Fog 73 22.8 69 20.6 87 87 SSE 15 24 29.84 1011 3 5 0.00 0.00
8:32 am 08:32 Cloudy with Mist and Fog 73 22.8 69 20.6 87 87 SSE 13 20 29.84 1011 3 5 0.00 0.00
8:53 am 08:53 Cloudy with Mist and Fog 73 22.8 69 20.6 87 87 SSE 12 19 29.88 1012 4 6 0.00 0.00
9:53 am 09:53 Cloudy with Haze 74 23.3 69 20.6 85 85 S 9 15 29.90 1013 5 8 0.00 0.00
10:53 am 10:53 Cloudy with Haze 77 25 70 21.1 79 79 S 8 13 29.89 1012 5 8 0.00 0.00
11:15 am 11:15 Cloudy with Haze 78 25.6 70 21.1 76 76 SSE 12 19 29.83 1010 6 10 0.00 0.00
11:53 am 11:53 Cloudy 78 25.6 70 21.1 76 76 SSE 10 17 29.90 1012 7 11 0.00 0.00
12:53 pm 12:53 Cloudy 80 26.7 70 21.1 71 71 S 16 26 29.88 1012 8 13 0.00 0.00
1:53 pm 13:53 Cloudy 81 27.2 70 21.1 69 69 S 10 17 29.87 1012 9 14 0.00 0.00
2:53 pm 14:53 Mostly Cloudy 83 28.3 70 21.1 65 65 SSE 14 22 29.85 1011 10 16 0.00 0.00
3:53 pm 15:53 Mostly Cloudy 85 29.4 72 22.2 65 65 SSE 17 28 29.85 1011 10 16 0.00 0.00
4:05 pm 16:05 Mostly Cloudy 85 29.4 72 22.2 65 65 SSE 16 26 29.77 1008 10 16 0.00 0.00
4:53 pm 16:53 Mostly Sunny 88 31.1 72 22.2 59 59 S 15 24 29.84 1010 10 16 0.00 0.00
5:53 pm 17:53 Mostly Sunny 87 30.6 72 22.2 61 61 SSE 15 24 29.83 1010 10 16 0.00 0.00
6:53 pm 18:53 Sunny 85 29.4 72 22.2 65 65 SSE 12 19 29.83 1010 10 16 0.00 0.00
7:53 pm 19:53 Sunny 84 28.9 73 22.8 70 70 SSE 13 20 29.83 1010 10 16 0.00 0.00
8:53 pm 20:53 Clear 80 26.7 74 23.3 82 82 SE 12 19 29.83 1010 10 16 0.00 0.00
9:53 pm 21:53 Clear 79 26.1 73 22.8 82 82 SSE 13 20 29.84 1011 10 16 0.00 0.00
10:53 pm 22:53 Clear 78 25.6 73 22.8 85 85 SSE 14 22 29.84 1011 10 16 0.00 0.00
11:53 pm 23:53 Clear 77 25 73 22.8 88 88 SSE 10 17 29.85 1011 9 14 0.00 0.00

Powered by AerisWeather